Stations météo

réclame
Mon MeteoGroup
Svanberga, Suède (2490): Température de l'air & dewpoint: 28.07.2020 13:00:00 - 03.08.2020 13:00:00 (CEST)Svanberga, Suède (2490): Vitesse du vent & gusts: 28.07.2020 13:00:00 - 03.08.2020 13:00:00 (CEST)Svanberga, Suède (2490): Direction du vent: 28.07.2020 13:00:00 - 03.08.2020 13:00:00 (CEST)Svanberga, Suède (2490): reduced air pressure: 28.07.2020 13:00:00 - 03.08.2020 13:00:00 (CEST)Svanberga, Suède (2490): visibility: 28.07.2020 13:00:00 - 03.08.2020 13:00:00 (CEST)Svanberga, Suède (2490): Quantités de précipitations: 28.07.2020 13:00:00 - 03.08.2020 13:00:00 (CEST)
Date & Time tt [°C] td [°C] ff [km/h] ff [knt] fx [km/h] fx [knt] dd ppp [hPa] vv [km] rr [mm]
03.08.2020 13:00:00 19,3 10,8 11 6 29 16 W 1005,2 2,4 0,0
03.08.2020 12:00:00 19,0 10,5 9 5 24 13 WSW 1005,1 2,9 0,0
03.08.2020 11:00:00 18,8 10,9 10 5 27 14 WSW 1004,7 2,5 0,0
03.08.2020 10:00:00 17,9 11,2 10 5 28 15 WSW 1004,8 2,6 0,0
03.08.2020 09:00:00 16,6 11,1 11 6 28 15 WSW 1005,0 2,9 0,0
03.08.2020 08:00:00 15,5 11,3 10 6 26 14 W 1005,0 2,5 0,0
03.08.2020 07:00:00 15,3 12,1 9 5 25 13 WSW 1004,9 2,9 0,0
03.08.2020 06:00:00 14,4 12,1 5 3 18 10 WSW 1005,0 2,7 0,0
03.08.2020 05:00:00 13,4 12,1 4 2 16 9 SW 1004,8 2,8 0,0
03.08.2020 04:00:00 14,2 12,4 5 3 16 8 WSW 1004,9 3,1 0,0
03.08.2020 03:00:00 14,6 13,0 4 2 14 8 WSW 1005,2 2,9 0,0
03.08.2020 02:00:00 16,1 14,1 6 3 17 9 WSW 1005,1 3,0 0,0
03.08.2020 01:00:00 16,5 14,9 4 2 9 5 WSW 1005,0 2,5 0,0
03.08.2020 00:00:00 16,7 14,7 2 1 9 5 SSW 1005,1 2,3 0,0
02.08.2020 23:00:00 16,8 14,3 3 2 10 5 S 1005,3 2,2 0,0
02.08.2020 22:00:00 17,1 13,8 4 2 15 8 S 1005,6 2,0 0,0
02.08.2020 21:00:00 17,6 13,1 4 2 16 8 S 1005,7 2,2 0,0
02.08.2020 20:00:00 18,2 12,0 5 3 21 11 S 1006,0 2,1 0,0
02.08.2020 19:00:00 20,4 12,6 7 4 26 14 S 1006,3 1,7 0,0
02.08.2020 18:00:00 21,7 13,3 6 3 18 10 S 1006,6 2,5 0,0
02.08.2020 17:00:00 21,3 10,8 6 3 21 12 S 1007,1 2,2 0,0
02.08.2020 16:00:00 22,5 10,3 10 5 26 14 S 1007,6 2,0 0,0
02.08.2020 15:00:00 24,0 12,3 5 3 18 10 SSW 1007,9 1,8 0,0
02.08.2020 14:00:00 25,5 15,5 6 4 23 12 WSW 1008,1 1,9 0,0
02.08.2020 13:00:00 23,5 15,0 8 5 24 13 WSW 1008,6 2,2 0,0
02.08.2020 12:00:00 23,3 15,6 6 4 22 12 WSW 1008,9 1,6 0,0
02.08.2020 11:00:00 23,1 15,7 9 5 18 10 SW 1009,4 1,7 0,0
02.08.2020 10:00:00 20,9 16,1 4 2 11 6 S 1009,6 1,0 0,0
02.08.2020 09:00:00 19,9 14,9 4 2 8 4 SSW 1010,1 1,1 0,0
02.08.2020 08:00:00 19,4 14,6 3 2 12 7 SW 1010,5 1,1 0,0
02.08.2020 07:00:00 17,1 14,0 0 0 8 5 N 1011,0 - 0,0
02.08.2020 06:00:00 13,8 13,5 0 0 2 1 N 1011,4 1,0 0,0
02.08.2020 05:00:00 12,6 11,5 0 0 7 4 N 1011,7 1,0 0,0
02.08.2020 04:00:00 13,6 12,0 0 0 8 4 N 1012,2 1,0 0,0
02.08.2020 03:00:00 13,1 11,3 0 0 5 3 N 1012,8 - 0,0
02.08.2020 02:00:00 14,7 11,5 0 0 9 5 N 1013,3 - 0,0
02.08.2020 01:00:00 14,8 11,6 3 1 10 5 SSW 1013,8 - 0,0
02.08.2020 00:00:00 14,9 11,9 2 1 8 5 S 1014,2 - 0,0
01.08.2020 23:00:00 14,1 12,0 0 0 6 4 N 1014,5 - 0,0
01.08.2020 22:00:00 15,7 12,4 2 1 8 4 SSE 1014,8 - 0,0
01.08.2020 21:00:00 16,7 12,6 4 2 9 5 SSE 1015,0 - 0,0
01.08.2020 20:00:00 18,1 13,8 3 2 14 8 SE 1015,4 - 0,0
01.08.2020 19:00:00 20,3 11,5 7 4 18 10 SSE 1015,7 1,1 0,0
01.08.2020 18:00:00 22,2 13,5 8 4 18 10 SE 1015,9 2,1 0,0
01.08.2020 17:00:00 22,9 13,7 9 5 17 9 ESE 1016,2 3,2 0,0
01.08.2020 16:00:00 24,0 9,9 5 3 10 5 E 1016,3 - 0,0
01.08.2020 15:00:00 23,8 10,1 4 2 10 5 E 1016,9 1,9 0,0
01.08.2020 14:00:00 23,4 7,9 3 2 10 6 E 1017,3 - 0,0
01.08.2020 13:00:00 23,1 6,4 3 2 9 5 N 1017,6 - 0,0
01.08.2020 12:00:00 22,4 7,8 3 1 10 5 NE 1017,9 - 0,0
01.08.2020 11:00:00 21,4 8,3 4 2 12 6 ENE 1018,1 1,0 0,0
01.08.2020 10:00:00 20,3 9,5 5 3 13 7 ENE 1017,8 - 0,0
01.08.2020 09:00:00 19,5 12,5 3 2 11 6 NNE 1017,8 - 0,0
01.08.2020 08:00:00 17,9 14,0 3 1 9 5 N 1017,6 1,6 0,0
01.08.2020 07:00:00 16,3 14,0 3 1 8 5 N 1017,6 1,8 0,0
01.08.2020 06:00:00 14,4 13,3 5 3 10 6 NW 1017,5 2,1 0,0
01.08.2020 05:00:00 12,1 11,9 5 3 11 6 WNW 1017,5 1,5 0,0
01.08.2020 04:00:00 10,0 9,9 2 1 8 4 W 1017,7 1,1 0,0
01.08.2020 03:00:00 12,8 12,7 3 1 12 7 NNE 1017,7 1,4 0,0
01.08.2020 02:00:00 10,2 10,0 0 0 8 4 N 1017,6 1,4 0,0
01.08.2020 01:00:00 10,8 10,6 3 1 7 4 W 1017,6 2,0 0,0
01.08.2020 00:00:00 11,2 10,7 2 1 6 4 SW 1017,5 2,2 0,0
31.07.2020 23:00:00 12,9 11,6 3 2 10 5 WSW 1017,3 2,7 0,0
31.07.2020 22:00:00 15,2 12,0 4 2 11 6 WNW 1017,3 2,8 0,0
31.07.2020 21:00:00 16,3 12,3 4 2 11 6 NW 1017,1 1,6 0,0
31.07.2020 20:00:00 18,4 11,9 4 2 18 10 NNW 1016,7 1,4 0,0
31.07.2020 19:00:00 19,2 11,0 8 4 24 13 NNW 1016,6 - 0,0
31.07.2020 18:00:00 19,6 12,1 5 3 24 13 N 1016,5 1,5 0,0
31.07.2020 17:00:00 19,8 13,3 8 4 24 13 N 1016,2 27 0,0
31.07.2020 16:00:00 19,3 13,5 11 6 25 14 NNW 1016,0 26 0,0
31.07.2020 15:00:00 18,6 13,7 7 4 22 12 N 1015,6 25 0,0
31.07.2020 14:00:00 17,9 14,2 8 4 23 12 NNW 1015,4 30 0,0
31.07.2020 13:00:00 17,8 13,7 9 5 26 14 NNW 1014,9 24 0,0
31.07.2020 12:00:00 17,7 13,8 10 5 25 13 NNW 1014,3 36 0,0
31.07.2020 11:00:00 17,7 14,2 8 5 26 14 NNW 1013,8 32 0,0
31.07.2020 10:00:00 16,7 13,8 9 5 29 16 N 1013,1 37 0,0
31.07.2020 09:00:00 17,8 14,9 6 3 26 14 N 1012,3 31 0,0
31.07.2020 08:00:00 16,3 14,1 8 5 24 13 N 1011,6 32 0,0
31.07.2020 07:00:00 15,8 14,8 7 4 21 11 N 1010,6 23 0,0
31.07.2020 06:00:00 14,9 14,4 7 4 21 11 N 1009,7 23 0,0
31.07.2020 05:00:00 14,1 13,8 7 4 20 11 N 1009,0 20 0,0
31.07.2020 04:00:00 14,1 13,8 6 4 18 10 N 1008,0 28 0,0
31.07.2020 03:00:00 14,5 14,0 6 3 17 9 NNE 1006,8 36 0,0
31.07.2020 02:00:00 14,2 13,6 9 5 20 11 NE 1005,5 50 0,0
31.07.2020 01:00:00 14,8 14,6 5 3 15 8 NE 1003,9 50 3,4
31.07.2020 00:00:00 15,1 14,9 6 3 19 11 WNW 1002,8 2,9 2,0
30.07.2020 23:00:00 15,1 14,9 6 4 19 11 W 1002,2 4,1 6,1
30.07.2020 22:00:00 15,1 14,8 10 6 22 12 WNW 1001,9 4,5 2,3
30.07.2020 21:00:00 15,0 14,7 8 4 18 10 WNW 1001,8 14 1,6
30.07.2020 20:00:00 14,9 14,4 8 4 26 14 W 1001,7 12 0,9
30.07.2020 19:00:00 14,9 14,3 14 7 33 18 WSW 1001,8 11 2,1
30.07.2020 18:00:00 14,9 14,1 7 4 16 9 WSW 1001,9 4,2 2,4
30.07.2020 17:00:00 15,8 14,8 3 1 9 5 WSW 1003,0 11 0,4
30.07.2020 16:00:00 15,3 14,0 3 2 41 22 WSW 1002,8 37 4,4
30.07.2020 15:00:00 19,0 13,2 7 4 23 12 WSW 1001,9 23 0,0
30.07.2020 14:00:00 20,6 13,3 8 4 28 15 WSW 1002,2 29 0,0
30.07.2020 13:00:00 20,2 12,4 9 5 26 14 W 1002,5 38 0,0
30.07.2020 12:00:00 19,5 11,5 9 5 26 14 W 1002,5 35 0,0
30.07.2020 11:00:00 19,3 11,8 11 6 28 15 W 1002,5 27 0,0
30.07.2020 10:00:00 18,1 11,4 8 4 19 10 W 1002,5 30 0,0
30.07.2020 09:00:00 16,3 13,0 8 4 18 10 WNW 1002,5 39 0,0
30.07.2020 08:00:00 15,0 12,5 6 4 16 9 WNW 1002,3 48 0,0
30.07.2020 07:00:00 14,3 12,7 5 3 14 7 WNW 1001,9 39 0,0
30.07.2020 06:00:00 11,8 11,6 2 1 4 2 WSW 1001,8 15 0,0
30.07.2020 05:00:00 11,0 10,8 0 0 1 0 N 1001,5 15 0,0
30.07.2020 04:00:00 11,1 10,9 0 0 2 1 N 1001,6 16 0,0
30.07.2020 03:00:00 11,5 11,0 0 0 3 2 N 1001,9 19 0,0
30.07.2020 02:00:00 12,0 11,2 0 0 5 3 N 1002,3 24 0,0
30.07.2020 01:00:00 12,7 11,3 0 0 7 4 N 1002,8 50 0,0
30.07.2020 00:00:00 11,5 10,2 3 1 7 4 SW 1003,0 48 0,0
29.07.2020 23:00:00 12,5 10,7 3 1 9 5 SSW 1003,4 50 0,0
29.07.2020 22:00:00 13,8 11,8 3 1 8 5 S 1003,5 46 0,0
29.07.2020 21:00:00 12,9 12,1 3 1 7 4 SSE 1003,6 42 0,0
29.07.2020 20:00:00 15,3 11,7 3 2 12 7 S 1004,1 49 0,0
29.07.2020 19:00:00 16,0 12,4 5 3 16 9 S 1004,4 41 0,0
29.07.2020 18:00:00 15,6 13,1 4 2 23 13 S 1004,6 39 0,1
29.07.2020 17:00:00 17,9 10,8 6 3 21 12 SSW 1004,5 39 0,0
29.07.2020 16:00:00 19,2 11,0 8 4 22 12 SW 1004,6 35 0,0
29.07.2020 15:00:00 18,6 11,7 6 4 22 12 W 1004,5 40 0,0
29.07.2020 14:00:00 19,6 9,8 10 5 24 13 W 1004,3 31 0,0
29.07.2020 13:00:00 19,7 11,2 8 4 20 11 WSW 1004,4 27 0,0
29.07.2020 12:00:00 17,4 9,6 9 5 23 12 WSW 1004,6 43 0,0
29.07.2020 11:00:00 17,3 11,3 5 3 18 10 SW 1004,7 28 0,0
29.07.2020 10:00:00 17,0 12,7 4 2 17 9 WSW 1004,5 30 0,0
29.07.2020 09:00:00 16,4 12,9 8 4 16 9 WSW 1004,2 34 0,0
29.07.2020 08:00:00 15,8 13,1 5 3 14 8 W 1003,9 27 0,0
29.07.2020 07:00:00 13,2 12,6 3 1 12 7 SW 1003,7 19 0,0
29.07.2020 06:00:00 12,1 11,6 4 2 16 9 SW 1003,6 19 0,0
29.07.2020 05:00:00 12,4 12,1 4 2 14 8 WSW 1003,4 14 0,0
29.07.2020 04:00:00 13,2 12,7 6 3 19 10 SW 1003,3 16 0,0
29.07.2020 03:00:00 13,8 13,2 6 4 22 12 WSW 1002,7 16 0,0
29.07.2020 02:00:00 16,3 16,0 9 5 21 12 WSW 1002,3 10 0,0
29.07.2020 01:00:00 16,6 16,3 3 1 16 9 SSE 1002,1 6 0,1
29.07.2020 00:00:00 16,5 15,9 9 5 18 10 ESE 1002,7 12 0,9
28.07.2020 23:00:00 16,2 15,6 9 5 18 10 SE 1003,4 8 0,7
28.07.2020 22:00:00 16,2 15,6 9 5 23 12 ESE 1003,6 18 0,0
28.07.2020 21:00:00 16,2 15,6 10 6 21 12 ESE 1004,9 23 0,2
28.07.2020 20:00:00 15,9 15,1 12 7 24 13 SE 1005,9 5 1,4
28.07.2020 19:00:00 17,0 14,8 12 6 27 15 SE 1006,4 31 0,0
28.07.2020 18:00:00 16,9 14,4 12 6 25 13 ESE 1006,9 35 0,0
28.07.2020 17:00:00 17,7 14,4 11 6 27 15 ESE 1007,4 35 0,0
28.07.2020 16:00:00 18,5 14,2 10 6 25 14 SE 1008,1 37 0,0
28.07.2020 15:00:00 19,4 13,8 10 6 28 15 SE 1008,3 34 0,0
28.07.2020 14:00:00 19,6 14,0 13 7 32 18 SE 1009,0 28 0,0
28.07.2020 13:00:00 18,3 13,4 10 5 22 12 SE 1009,5 37 0,0

tt = Température de l'air
td = dewpoint
ff = Vitesse du vent
fx = gusts
dd = Direction du vent
ppp = reduced air pressure
vv = visibility
rr = Quantités de précipitations

stations d'obs. à proximité